CAPE
0 0 0 0 0 0 0 0 0 591 99 0 38 1 0 0 0 0 0 0 0 0 0 0 0 0 0 0 0 0 0 0 0 0 0 0 0 0 0 0 0 0 0
0 0 0 0 0 0 0 0 0 692 276 182 0 0 0 0 0 0 0 0 0 0 0 0 0 0 0 0 0 0 0 0 0 0 0 0 0 0 0 0 0 0 0
0 0 0 0 0 0 0 0 0 92 55 3 2 2 2 1 1 0 0 0 0 0 0 0 0 0 0 0 0 0 0 0 0 0 0 0 0 0 0 0 0 0 0
0 0 0 0 1 1 1 0 0 2 10 3 2 1 2 0 0 0 0 0 0 0 0 0 0 0 0 0 0 0 0 0 0 0 0 0 0 0 0 0 0 0 0
1 1 0 0 0 0 1 0 0 2 2 2 1 0 0 0 0 0 0 0 0 0 0 0 0 0 0 0 0 0 0 0 0 0 0 0 0 0 0 0 0 0 0
2 3 3 0 0 0 1 1 2 1 2 2 1 0 0 0 0 0 0 0 0 0 0 0 0 0 0 0 0 0 0 0 0 0 0 0 0 0 0 0 0 0 0
2 2 2 2 2 2 2 2 4 1 3 2 0 0 0 0 0 0 0 0 0 0 0 0 0 0 0 0 0 0 0 0 0 0 0 0 0 0 0 0 0 0 0
1 2 2 3 2 2 1 1 3 2 2 1 0 0 0 0 0 0 0 0 0 0 0 0 0 0 0 0 0 0 0 0 0 0 0 0 0 0 0 0 0 0 0
2 2 2 4 3 2 1 1 4 2 4 1 0 0 0 0 0 0 0 0 0 0 0 0 0 0 0 0 0 0 0 0 0 0 0 0 0 0 0 0 0 0 0
2 2 2 2 2 2 2 2 2 4 5 1 1 0 0 0 0 0 0 0 0 0 0 0 0 0 0 0 0 0 0 0 0 0 0 0 0 0 0 0 0 0 0
1 2 2 2 2 2 1 3 1 2 1 1 2 2 2 2 0 0 0 0 0 0 0 0 0 0 0 0 0 0 0 0 0 0 0 0 0 0 0 0 0 0 0
0 0 3 3 2 3 3 5 0 1 2 3 3 4 2 3 0 0 0 0 0 0 0 0 0 0 0 0 0 0 0 0 0 0 0 0 0 0 0 0 0 0 0
0 0 1 4 3 3 1 3 3 1 2 2 1 1 1 2 0 0 0 0 0 0 0 0 0 0 0 0 0 0 0 0 0 0 0 0 0 0 0 0 0 0 0
0 0 0 12 0 3 3 3 3 3 4 4 3 2 2 0 0 0 0 0 0 0 0 0 0 0 0 0 0 0 0 0 0 0 0 0 0 0 0 0 0 0 0
0 0 0 0 1 1 1 1 0 0 0 1 0 0 0 0 0 0 0 0 0 0 0 0 0 0 0 0 0 0 0 0 0 0 0 0 0 0 0 0 0 0 0
0 0 0 0 0 0 0 0 0 0 0 0 0 0 0 0 0 0 0 0 0 0 0 0 0 0 0 0 0 0 0 0 0 0 0 0 0 0 0 0 0 0 0
0 0 0 0 0 0 0 0 0 0 0 0 0 0 0 0 0 0 0 0 0 0 0 0 0 0 0 0 0 0 0 0 0 0 0 0 0 0 0 0 0 0 0
0 0 0 0 0 0 0 0 0 0 0 0 0 0 0 0 0 0 0 0 0 0 0 0 0 0 0 0 0 0 0 0 0 0 0 0 0 0 0 0 0 0 0
0 0 0 0 0 0 0 0 0 0 0 0 0 0 0 0 0 0 0 0 0 0 0 0 0 0 0 0 0 0 0 0 0 0 0 0 0 0 0 0 2 0 0
0 0 0 0 0 0 0 0 0 0 0 0 0 0 0 0 0 0 0 0 0 0 0 0 0 0 0 0 0 0 0 0 0 0 0 0 0 0 0 0 1 0 0
0 0 0 0 0 0 0 0 0 0 0 0 0 0 0 0 0 0 0 0 0 1 1 1 0 0 0 0 1 1 1 1 1 1 0 0 0 0 0 0 0 0 0
0 0 0 0 0 0 0 0 0 0 0 0 0 0 0 0 0 0 0 0 0 0 0 2 2 2 2 2 3 0 3 3 3 2 2 0 1 1 1 0 0 0 4
0 0 0 0 0 0 0 0 0 0 0 0 0 0 0 0 0 0 0 0 0 0 0 1 0 0 1 1 3 1 3 2 2 6 3 1 0 0 0 1 1 1 1
0 0 0 0 0 0 0 0 0 0 0 0 0 0 0 0 0 0 0 0 0 1 2 0 0 1 1 1 8 7 5 4 8 4 7 3 1 1 2 1 1 0 1
0 0 0 0 0 0 3 7 0 0 0 0 0 0 0 0 0 0 0 0 0 2 2 0 2 1 1 1 2 4 3 0 0 2 2 1 0 0 1 0 0 0 0
0 0 0 0 0 0 0 0 0 0 0 0 0 0 0 0 0 0 0 0 1 2 1 1 3 3 2 2 1 2 2 1 0 0 1 1 2 1 1 0 0 0 0
CIN
-0 -0 -0 -0 -0 -0 -0 -0 -0 -43 -209 -0 -26 -13 -0 -0 -0 -0 -0 -0 -0 -0 -0 -0 -0 -0 -0 -0 -0 -0 -0 -0 -0 -0 -0 -0 -0 -0 -0 -0 -0 -0 -0
-0 -0 -0 -0 -0 -0 -0 -0 -0 -20 -168 -177 -0 -0 -0 -0 -0 -0 -0 -0 -0 -0 -0 -0 -0 -0 -0 -0 -0 -0 -0 -0 -0 -0 -0 -0 -0 -0 -0 -0 -0 -0 -0
-0 -0 -0 -0 -0 -0 -0 -0 -0 -230 -350 -0 -0 -0 -0 -0 -0 -0 -0 -0 -0 -0 -0 -0 -0 -0 -0 -0 -0 -0 -0 -0 -0 -0 -0 -0 -0 -0 -0 -0 -0 -0 -0
-0 -0 -0 -0 -0 -0 -0 -0 -0 -0 -80 -0 -0 -0 -0 -0 -0 -0 -0 -0 -0 -0 -0 -0 -0 -0 -0 -0 -0 -0 -0 -0 -0 -0 -0 -0 -0 -0 -0 -0 -0 -0 -0
-0 -0 -0 -0 -0 -0 -0 -0 -0 -0 -0 -0 -0 -0 -0 -0 -0 -0 -0 -0 -0 -0 -0 -0 -0 -0 -0 -0 -0 -0 -0 -0 -0 -0 -0 -0 -0 -0 -0 -0 -0 -0 -0
-0 -0 -0 -0 -0 -0 -0 -0 -0 -0 -0 -0 -0 -0 -0 -0 -0 -0 -0 -0 -0 -0 -0 -0 -0 -0 -0 -0 -0 -0 -0 -0 -0 -0 -0 -0 -0 -0 -0 -0 -0 -0 -0
-0 -0 -0 -0 -0 -0 -0 -0 -0 -0 -0 -0 -0 -0 -0 -0 -0 -0 -0 -0 -0 -0 -0 -0 -0 -0 -0 -0 -0 -0 -0 -0 -0 -0 -0 -0 -0 -0 -0 -0 -0 -0 -0
-0 -0 -0 -0 -0 -0 -0 -0 -0 -0 -0 -0 -0 -0 -0 -0 -0 -0 -0 -0 -0 -0 -0 -0 -0 -0 -0 -0 -0 -0 -0 -0 -0 -0 -0 -0 -0 -0 -0 -0 -0 -0 -0
-0 -0 -0 -0 -0 -0 -0 -0 -14 -0 -0 -0 -0 -0 -0 -0 -0 -0 -0 -0 -0 -0 -0 -0 -0 -0 -0 -0 -0 -0 -0 -0 -0 -0 -0 -0 -0 -0 -0 -0 -0 -0 -0
-0 -0 -0 -0 -0 -0 -0 -0 -0 -0 -0 -0 -0 -0 -0 -0 -0 -0 -0 -0 -0 -0 -0 -0 -0 -0 -0 -0 -0 -0 -0 -0 -0 -0 -0 -0 -0 -0 -0 -0 -0 -0 -0
-0 -0 -0 -0 -0 -0 -0 -0 -0 -0 -0 -0 -0 -0 -0 -0 -0 -0 -0 -0 -0 -0 -0 -0 -0 -0 -0 -0 -0 -0 -0 -0 -0 -0 -0 -0 -0 -0 -0 -0 -0 -0 -3
-0 -0 -0 -0 -0 -0 -0 -0 -0 -0 -0 -0 -0 -0 -0 -0 -0 -0 -0 -0 -0 -0 -0 -0 -0 -0 -0 -0 -0 -0 -0 -0 -0 -0 -0 -0 -0 -0 -0 -0 -0 -0 -0
-0 -0 -0 -0 -0 -0 -0 -0 -0 -0 -0 -0 -0 -0 -0 -0 -0 -0 -0 -0 -0 -0 -0 -0 -0 -0 -0 -0 -0 -0 -0 -0 -0 -0 -0 -0 -2 -0 -11 -0 -0 -0 -6
-0 -0 -0 -2 -0 -0 -0 -0 -0 -0 -0 -0 -0 -0 -0 -0 -0 -0 -0 -0 -0 -0 -0 -0 -0 -0 -0 -0 -0 -0 -0 -0 -0 -0 -0 -0 -0 -0 -0 -0 -0 -0 -0
-0 -0 -0 -0 -2 -2 -0 -0 -0 -0 -0 -0 -0 -0 -0 -0 -0 -0 -0 -0 -0 -0 -0 -0 -0 -0 -0 -0 -0 -0 -0 -0 -0 -0 -0 -0 -0 -0 -0 -0 -7 -0 -0
-0 -0 -0 -0 -0 -0 -0 -0 -0 -0 -0 -0 -0 -0 -0 -0 -0 -0 -0 -0 -0 -0 -0 -0 -0 -0 -0 -0 -0 -0 -0 -0 -0 -0 -0 -0 -0 -0 -0 -0 -0 -0 -0
-0 -0 -0 -0 -0 -0 -0 -0 -0 -0 -0 -0 -0 -0 -0 -0 -0 -0 -0 -0 -0 -0 -0 -0 -0 -0 -0 -0 -0 -0 -0 -0 -0 -0 -0 -0 -0 -0 -0 -0 -0 -0 -0
-0 -0 -0 -0 -0 -0 -0 -0 -0 -0 -0 -0 -0 -0 -0 -0 -0 -0 -0 -0 -0 -0 -0 -0 -0 -0 -0 -0 -0 -0 -0 -0 -0 -0 -0 -0 -0 -0 -0 -0 -0 -0 -0
-0 -0 -0 -0 -0 -0 -0 -0 -0 -0 -0 -0 -0 -0 -0 -0 -0 -0 -7 -0 -0 -0 -0 -0 -0 -0 -0 -0 -0 -0 -0 -0 -0 -0 -0 -0 -0 -0 -0 -0 -0 -0 -0
-0 -0 -0 -0 -0 -0 -0 -0 -0 -0 -0 -0 -0 -0 -0 -0 -0 -0 -0 -0 -0 -0 -0 -0 -0 -0 -0 -0 -0 -0 -0 -0 -0 -0 -0 -0 -0 -0 -0 -0 -0 -0 -0
-0 -0 -0 -0 -0 -0 -0 -0 -0 -0 -0 -0 -0 -0 -0 -0 -0 -0 -0 -0 -0 -1 -0 -0 -0 -0 -0 -0 -0 -0 -0 -0 -0 -0 -0 -0 -0 -0 -0 -0 -0 -0 -0
-0 -0 -0 -0 -0 -0 -0 -0 -0 -0 -0 -0 -0 -0 -0 -0 -0 -0 -0 -0 -0 -0 -0 -0 -0 -0 -0 -0 -0 -0 -0 -0 -0 -1 -0 -0 -1 -0 -0 -0 -0 -0 -0
-0 -0 -0 -0 -0 -0 -0 -0 -0 -0 -0 -0 -0 -0 -0 -0 -0 -0 -0 -0 -3 -0 -1 -1 -1 -0 -0 -0 -0 -0 -0 -0 -0 -0 -1 -0 -0 -0 -0 -0 -0 -0 -0
-0 -0 -0 -0 -0 -0 -0 -0 -0 -0 -0 -0 -0 -0 -0 -0 -0 -0 -0 -0 -0 -0 -0 -0 -0 -0 -0 -0 -0 -0 -0 -0 -0 -0 -0 -0 -1 -0 -0 -0 -0 -0 -0
-0 -0 -0 -0 -0 -0 -15 -11 -0 -0 -0 -0 -0 -0 -0 -0 -0 -0 -0 -0 -0 -0 -0 -0 -0 -0 -0 -0 -0 -0 -0 -0 -0 -0 -0 -0 -0 -0 -0 -0 -0 -0 -0
-0 -0 -0 -0 -0 -0 -0 -1 -0 -0 -0 -0 -0 -0 -0 -0 -0 -0 -0 -0 -0 -0 -0 -0 -0 -0 -0 -0 -0 -0 -0 -0 -0 -0 -0 -0 -0 -0 -0 -0 -0 -0 -0
Wind_Speed
52 52 50 49 49 49 47 43 49 35 21 16 23 23 20 21 17 13 12 11 10 11 8 7 7 8 11 14 15 16 16 16 15 18 19 25 26 28 29 28 28 29 30
55 55 56 53 51 52 51 49 48 31 19 18 19 17 20 16 14 11 13 11 11 9 9 8 9 9 11 12 14 16 16 18 18 19 23 26 27 28 28 29 30 30 32
58 57 57 57 55 53 52 50 44 26 18 16 17 18 18 14 13 10 11 10 8 7 8 6 8 11 13 13 15 16 17 19 21 22 26 27 26 28 28 29 32 33 32
60 61 60 58 58 56 52 50 46 28 22 18 18 18 17 16 13 12 12 11 9 6 5 6 7 11 13 14 15 16 15 19 22 24 27 28 27 27 28 30 34 34 37
60 60 61 62 59 58 56 52 48 32 26 20 18 17 16 16 14 13 13 12 9 6 6 7 10 11 11 11 14 16 18 21 23 25 27 28 29 30 32 32 36 37 36
57 59 60 60 60 59 57 52 49 32 28 24 20 18 17 16 13 13 13 12 9 7 9 11 10 11 12 13 13 17 17 22 24 26 27 29 29 28 28 31 34 36 35
53 55 56 56 57 57 56 53 53 36 28 27 21 19 18 15 13 12 11 9 9 9 11 10 12 15 15 18 18 18 19 21 22 26 28 27 27 26 28 31 32 32 32
53 53 53 53 52 51 50 47 42 32 28 25 20 17 15 13 9 10 8 8 9 10 12 13 15 16 19 18 20 20 19 23 25 26 27 27 25 26 28 29 31 32 31
52 51 50 50 47 43 38 37 30 29 24 22 18 16 13 9 8 7 11 9 10 11 13 15 16 19 23 24 22 22 24 22 24 27 27 27 27 30 31 31 33 33 33
50 50 48 45 41 35 26 18 23 23 20 17 15 12 8 9 7 7 9 13 11 12 16 18 19 20 22 22 22 23 25 26 26 30 33 33 34 33 32 29 29 28 29
47 47 46 43 35 29 21 14 12 11 12 8 6 6 7 4 8 5 12 13 13 16 19 20 20 24 25 23 23 23 25 27 30 30 32 34 33 31 28 26 25 26 27
44 43 42 34 28 23 16 12 4 15 10 7 2 1 4 5 9 10 12 15 17 18 21 22 23 25 27 26 24 24 25 25 26 28 29 30 31 29 28 27 27 26 23
43 41 34 35 30 24 20 15 7 9 9 5 5 1 6 11 13 15 18 20 20 21 22 23 24 25 25 24 23 23 22 25 27 27 28 29 28 28 27 27 26 24 23
28 26 18 10 34 28 27 18 12 9 11 9 4 8 12 14 15 17 19 20 21 22 24 25 23 21 21 21 22 21 22 24 25 26 28 29 28 27 28 26 24 24 23
15 26 27 30 22 22 20 18 17 16 15 12 13 14 15 17 19 20 21 21 21 21 23 21 20 21 23 22 21 22 23 25 27 27 27 28 28 27 26 25 23 23 22
23 16 27 34 19 9 24 20 21 23 21 19 21 21 22 22 22 23 22 22 22 22 21 22 23 23 24 24 25 26 26 25 26 26 26 27 27 26 25 25 23 23 24
23 25 23 17 13 19 19 23 21 20 23 23 24 24 24 25 25 26 25 24 23 22 23 24 25 25 25 25 26 26 26 27 26 25 26 27 25 25 25 24 24 25 26
36 40 36 30 26 25 33 32 29 26 25 26 29 29 29 28 28 28 27 25 25 25 25 26 26 27 27 27 27 28 28 27 27 26 26 25 24 23 24 24 26 26 24
40 40 39 37 36 35 34 33 32 28 27 28 30 30 29 29 29 29 29 27 27 28 28 28 27 27 27 27 27 28 28 28 28 27 26 25 23 23 25 25 27 27 23
37 39 38 37 36 35 34 33 32 30 28 29 30 30 31 31 30 29 28 28 29 29 28 28 27 27 27 27 27 26 28 27 27 26 26 26 25 26 26 27 27 26 24
38 39 39 37 37 36 34 33 32 32 30 28 29 30 30 31 31 31 31 31 32 31 31 29 28 28 27 26 26 26 26 26 26 25 26 27 26 27 27 28 27 27 26
39 39 39 38 37 37 36 35 34 33 31 31 32 32 32 32 33 32 30 30 33 32 32 32 29 26 25 25 26 28 27 26 26 26 26 27 27 27 27 27 27 26 25
39 41 39 40 38 36 36 36 35 34 32 32 33 32 31 30 31 30 30 33 31 33 30 30 30 29 27 25 24 25 27 27 27 27 28 28 28 28 28 27 25 25 25
37 40 40 40 38 38 36 36 37 37 34 33 33 32 32 32 33 34 34 36 35 34 32 31 30 29 27 25 24 25 28 30 29 29 29 28 28 27 26 27 27 26 25
34 36 37 39 38 36 35 32 35 35 33 34 32 32 33 35 36 37 38 38 38 37 37 36 33 31 31 31 32 32 31 31 30 29 29 28 28 29 28 27 27 27 27
31 34 35 38 38 36 35 31 37 35 33 34 31 31 33 36 37 38 38 38 37 37 36 35 34 33 31 32 32 32 32 31 30 30 30 30 31 30 30 30 30 29 29
Wind_Direction
309 307 305 303 301 301 301 304 301 302 277 253 249 269 261 256 268 258 264 261 264 273 284 298 316 333 339 341 344 343 339 341 339 340 340 326 328 329 331 335 339 339 335
306 303 300 300 299 297 296 300 302 301 268 243 249 257 243 244 236 252 260 249 252 257 276 290 305 325 331 339 341 336 339 335 338 334 330 324 324 329 332 330 331 335 333
306 304 299 295 294 294 294 295 299 288 273 254 239 233 240 247 261 242 234 222 236 252 260 275 299 314 321 329 332 333 335 330 331 330 323 322 326 331 330 328 325 329 332
305 301 297 295 292 290 290 290 290 277 270 261 249 246 242 254 255 241 233 229 240 237 239 274 300 310 315 322 326 328 334 332 330 328 324 324 327 329 328 329 324 326 326
309 305 300 295 291 288 286 284 286 269 264 255 249 249 249 246 247 240 232 236 242 242 280 294 300 309 315 326 324 321 326 326 326 326 326 327 325 326 322 326 322 322 327
314 308 304 298 292 287 283 279 278 261 257 250 249 247 245 245 232 228 226 233 242 254 281 296 301 307 312 317 319 317 321 320 321 322 324 324 324 326 326 328 327 324 324
322 316 310 305 297 288 281 274 271 251 247 245 245 242 242 239 224 210 208 229 253 276 284 292 300 309 316 312 313 315 317 316 321 320 320 323 325 325 326 326 326 327 327
330 325 319 314 305 294 281 269 260 241 237 232 238 236 234 225 202 205 214 243 277 286 294 298 298 306 314 314 315 314 313 313 315 317 316 320 324 322 322 326 326 324 326
340 333 328 323 317 309 291 269 241 227 227 224 225 212 221 236 210 224 247 263 269 287 298 306 308 309 311 316 315 314 309 315 316 315 316 319 321 318 319 321 321 321 323
346 346 338 334 331 322 315 285 238 223 218 215 214 215 231 220 225 248 264 268 276 291 301 307 311 312 315 316 319 313 309 310 314 311 309 310 311 314 317 320 320 320 322
351 350 350 346 339 341 336 321 213 174 187 203 205 243 253 266 269 307 276 283 291 295 302 306 310 313 314 318 316 313 312 310 308 309 309 309 314 320 321 322 322 322 321
353 353 357 349 345 347 350 339 250 123 137 131 139 11 262 344 334 324 326 311 309 307 305 309 312 311 312 315 317 316 312 311 313 313 315 315 317 321 323 323 322 323 325
2 12 353 -0 1 2 4 11 23 95 127 102 90 331 316 325 322 322 312 315 316 314 312 314 316 314 316 315 319 316 316 314 312 315 315 316 319 321 323 324 326 329 330
338 339 337 330 11 10 17 16 23 29 63 67 36 350 356 343 332 332 327 323 323 323 320 318 317 323 322 320 317 318 319 318 316 316 315 317 320 323 324 328 330 332 332
348 345 349 357 356 356 3 6 15 20 25 30 15 2 356 350 344 341 339 336 337 331 325 326 324 322 316 319 321 321 322 319 317 318 317 318 319 321 325 331 334 335 336
52 46 349 3 354 336 1 1 10 22 23 21 23 15 8 4 352 343 343 341 337 336 333 325 322 320 318 319 317 318 320 320 318 318 317 319 320 323 326 331 335 334 333
54 53 58 63 354 352 355 354 0 2 18 9 6 360 355 350 348 347 346 345 348 345 336 329 324 322 322 321 318 319 317 316 316 317 319 320 323 324 326 328 328 327 326
40 18 3 351 348 348 14 9 8 21 7 2 9 5 4 1 357 352 347 344 338 335 330 325 323 321 320 319 317 316 315 316 315 315 317 319 322 326 325 325 317 316 325
25 18 20 20 17 8 7 6 10 19 16 8 0 359 356 354 351 348 347 346 338 333 330 327 326 324 322 319 317 315 315 315 315 315 317 318 321 318 313 310 300 306 322
30 26 25 25 20 14 10 8 6 11 9 4 358 355 354 354 349 348 349 347 341 338 335 330 329 327 324 322 320 319 317 316 316 317 315 312 309 302 299 288 288 300 309
21 20 20 22 19 16 15 14 12 10 10 11 4 357 351 349 343 343 343 342 340 337 332 330 327 326 325 325 324 323 320 318 316 316 312 305 300 291 283 278 280 288 287
15 12 10 7 11 10 7 9 8 10 11 4 359 354 348 348 344 347 351 349 339 336 333 329 328 331 330 328 324 320 318 316 313 311 307 299 287 278 275 274 277 277 273
12 5 5 4 6 9 6 6 4 6 10 2 356 356 359 357 355 356 353 344 342 334 338 337 331 325 325 326 326 323 316 312 307 302 291 284 276 271 269 268 272 266 265
9 5 4 0 1 2 4 4 0 359 7 4 1 1 359 355 351 347 345 339 335 335 338 337 334 328 324 325 326 322 311 293 285 279 275 275 274 273 268 262 261 257 258
8 6 6 3 4 3 5 11 4 2 6 5 3 359 354 345 338 332 331 326 326 326 325 322 325 324 316 308 298 285 277 269 268 272 273 272 272 262 260 262 261 260 254
9 5 4 1 1 3 2 9 359 2 4 5 6 1 352 340 331 325 322 321 315 311 308 314 309 297 287 285 279 276 276 272 266 267 268 265 261 259 257 256 255 253 249